"TOA5","AWS1","CR1000","7964","CR1000.Std.14","CPU:AWS1_114.CR1","64363","TBL110"
"TIMESTAMP","RECORD","Wind_spd_WVc(1)","Wind_spd_WVc(2)","Air_Temp_Avg","Humidity_Avg","SW_upper_Wm2_Avg","Rain_Tot","Press_Avg","Issui_Tot","Depth_cm","SR50A_Raw","Quality","Ground_Temp_Avg(1)","Ground_Temp_Avg(2)","SW_lower_Wm2_Avg","Albedo_Avg","SWC_per(1)","SWC_per(2)","Period(1)","Period(2)"
"TS","RN","","","","","","","","","","","","","","","","","","",""
"","","WVc","WVc","Avg","Avg","Avg","Tot","Avg","Tot","Smp","Smp","Smp","Avg","Avg","Avg","Avg","Smp","Smp","Smp","Smp"
"2013-10-12 00:00:00",99277,0.257,52.85,14.8,99.4,0,0,864.5169,0,-2.121,3.118,214,16.42,16.67,0.4204347,0,49.41,56.46,33.15,34.86
"2013-10-12 00:10:00",99278,0.381,43.79,14.82,99.5,0,0,864.527,0,-1.811,3.115,291,16.44,16.66,0.2651356,0,49.35,56.46,33.14,34.86
"2013-10-12 00:20:00",99279,0.438,72.07,14.75,99.5,0,0.5,864.5166,0,-2.679,3.123,407,16.45,16.66,0.2272573,0,49.35,56.52,33.14,34.87
"2013-10-12 00:30:00",99280,0.503,66.96,14.76,99.5,0,0,864.5775,0,-1.099,3.109,336,16.47,16.66,0.3370981,0,49.35,56.52,33.14,34.87
"2013-10-12 00:40:00",99281,0.41,89.5,14.68,99.5,0,0,864.5331,0,-1.761,3.115,287,16.47,16.65,0.5416263,0,49.35,56.52,33.14,34.87
"2013-10-12 00:50:00",99282,0.507,56.98,14.65,99.6,0,0,864.515,0,-1.556,3.113,248,16.46,16.65,0.4545123,0,49.35,56.58,33.14,34.88
"2013-10-12 01:00:00",99283,0.235,58.11,14.65,99.6,0,0,864.5213,0,-1.399,3.111,264,16.4,16.65,0.374973,0,49.35,56.58,33.14,34.88
"2013-10-12 01:10:00",99284,0.446,62.71,14.63,99.6,0,0,864.5017,0,-1.665,3.115,252,16.34,16.64,0.2613448,0,49.3,56.58,33.12,34.88
"2013-10-12 01:20:00",99285,0.275,40.09,14.54,99.6,0,0,864.5255,0,-1.153,3.11,258,16.32,16.61,0.7651006,0,49.3,56.64,33.12,34.9
"2013-10-12 01:30:00",99286,0.254,58.8,14.28,99.7,0,0,864.5136,0,-0.914,3.11,267,16.35,16.59,1.465821,0,49.3,56.64,33.12,34.9
"2013-10-12 01:40:00",99287,0.341,59.9,13.93,99.6,0,0,864.5242,0,-0.883,3.112,274,16.38,16.62,1.753713,0,49.3,56.64,33.12,34.9
"2013-10-12 01:50:00",99288,0.279,42.91,13.61,99.5,0,0,864.5294,0,-1.356,3.117,266,16.37,16.65,1.799264,0,49.24,56.64,33.11,34.9
"2013-10-12 02:00:00",99289,0.248,32.23,13.44,98.8,0,0,864.5361,0,-1.265,3.117,269,16.34,16.68,2.075886,0,49.3,56.7,33.12,34.91
"2013-10-12 02:10:00",99290,0.211,64.85,13.21,98,0,0,864.5352,0,-1.737,3.123,271,16.32,16.69,2.204734,0,49.24,56.7,33.11,34.91
"2013-10-12 02:20:00",99291,0.392,70.69,12.99,96.8,0,0,864.5354,0,-1.49,3.122,300,16.33,16.65,2.106259,0,49.24,56.7,33.11,34.91
"2013-10-12 02:30:00",99292,0.383,52.35,12.94,95.3,0,0,864.3776,0,-2.821,3.135,299,16.29,16.62,1.985041,0,49.24,56.7,33.11,34.91
"2013-10-12 02:40:00",99293,0.47,36.03,12.83,93.6,0,0,864.2891,0,-3.031,3.138,329,16.28,16.62,2.064595,0,49.19,56.7,33.09,34.91
"2013-10-12 02:50:00",99294,0.259,42.44,12.58,92.3,0,0,864.2828,0,-3.678,3.146,235,16.28,16.64,2.405538,0,49.24,56.75,33.11,34.93
"2013-10-12 03:00:00",99295,0.418,121.5,12.38,93.4,0,0,864.3523,0,-3.172,3.142,328,16.19,16.65,2.44342,0,49.24,56.75,33.11,34.93
"2013-10-12 03:10:00",99296,0.351,89.9,12.21,95,0,0,864.5207,0,-3.76,3.148,253,16.22,16.63,1.988831,0,49.24,56.75,33.11,34.93
"2013-10-12 03:20:00",99297,0.398,36.43,12.34,92.4,0,0,864.5649,0,-1.808,3.127,278,16.18,16.6,1.284216,0,49.19,56.75,33.09,34.93
"2013-10-12 03:30:00",99298,0.406,75.32,12.59,86.9,0,0,864.7165,0,-1.91,3.128,256,16.17,16.59,2.390385,0,49.24,56.75,33.11,34.93
"2013-10-12 03:40:00",99299,0.205,84.6,12.48,87.8,0,0,864.7523,0,-1.512,3.126,235,16.11,16.57,2.738904,0,49.24,56.75,33.11,34.93
"2013-10-12 03:50:00",99300,0.185,83.8,12.1,90.3,0,0,864.7039,0,-4.635,3.158,224,16.09,16.54,2.140361,0,49.24,56.75,33.11,34.93
"2013-10-12 04:00:00",99301,0.299,63.88,12.05,91.3,0,0,864.767,0,-1.565,3.127,236,16.03,16.53,2.16309,0,49.19,56.75,33.09,34.93
"2013-10-12 04:10:00",99302,0.061,76.37,12.18,90.4,0,0,864.7881,0,-1.361,3.125,236,16.04,16.54,2.079749,0,49.19,56.75,33.09,34.93
"2013-10-12 04:20:00",99303,0.14,69.91,12,92.2,0,0,864.7881,0,-1.469,3.127,226,16.01,16.56,1.591064,0,49.19,56.81,33.09,34.94
"2013-10-12 04:30:00",99304,0.062,90.8,11.93,92.9,0,0,864.7986,0,-1.215,3.125,236,15.94,16.57,1.439535,0,49.19,56.75,33.09,34.93
"2013-10-12 04:40:00",99305,0.329,110.5,11.83,93.8,0,0,864.7902,0,-1.527,3.129,218,15.95,16.57,1.602429,0,49.24,56.75,33.11,34.93
"2013-10-12 04:50:00",99306,0.337,137,11.66,92,0,0,864.7859,0,-1.736,3.132,237,15.87,16.57,2.386597,0,49.19,56.75,33.09,34.93
"2013-10-12 05:00:00",99307,0.449,135.8,11.45,91.3,0,0,864.7839,0,-1.278,3.128,212,15.88,16.57,2.534338,0,49.24,56.81,33.11,34.94
"2013-10-12 05:10:00",99308,0.454,133.4,11.34,88.3,0,0,864.7881,0,-0.545,3.122,219,15.86,16.59,3.261682,0,49.19,56.75,33.09,34.93
"2013-10-12 05:20:00",99309,0.433,128.8,11.08,88.3,0,0,864.7881,0,-0.532,3.124,225,15.76,16.59,3.049548,0,49.19,56.81,33.09,34.94
"2013-10-12 05:30:00",99310,0.424,132,10.75,88.2,0,0,864.7881,0,-0.767,3.127,210,15.79,16.55,3.110199,0,49.13,56.75,33.08,34.93
"2013-10-12 05:40:00",99311,0.489,101.9,10.47,86.2,0,0,864.7881,0,-0.342,3.124,214,15.76,16.58,3.254249,0,49.13,56.75,33.08,34.93
"2013-10-12 05:50:00",99312,0.433,118.6,10.49,83.9,0,0,864.8139,0,-0.556,3.127,214,15.73,16.58,3.780899,0,49.19,56.75,33.09,34.93
"2013-10-12 06:00:00",99313,0.422,109.8,10.15,86.5,0.157176,0,864.809,0,-0.192,3.126,205,15.7,16.58,3.087746,2.692,49.13,56.81,33.08,34.94
"2013-10-12 06:10:00",99314,0.553,115.5,10.15,83.6,2.672061,0,864.9631,0,-0.044,3.124,218,15.66,16.53,3.985782,1.915,49.19,56.75,33.09,34.93
"2013-10-12 06:20:00",99315,0.453,117.9,10.16,83,6.216686,0,865.0843,0,-0.734,3.13,203,15.66,16.57,4.213266,0.698,49.19,56.81,33.09,34.94
"2013-10-12 06:30:00",99316,0.365,122.6,9.97,84.8,11.62443,0,865.1126,0,-0.467,3.129,209,15.59,16.59,4.031597,0.359,49.19,56.75,33.09,34.93
"2013-10-12 06:40:00",99317,0.49,131.4,9.64,86.9,22.70762,0,864.9833,0,-0.369,3.127,208,15.62,16.61,6.195482,0.269,49.13,56.81,33.08,34.94
"2013-10-12 06:50:00",99318,0.569,122.6,10.24,85.1,59.37651,0,865.1005,0,0.277,3.118,218,15.57,16.59,11.65618,0.215,49.19,56.81,33.09,34.94
"2013-10-12 07:00:00",99319,0.651,132.6,10.83,82.2,80.5613,0,865.1298,0,0.018,3.116,219,15.55,16.55,14.1726,0.183,49.13,56.81,33.08,34.94
"2013-10-12 07:10:00",99320,0.369,114.3,11.65,79.71,95.44224,0,865.1869,0,-0.238,3.114,220,15.5,16.56,17.56817,0.186,49.19,56.81,33.09,34.94
"2013-10-12 07:20:00",99321,0.226,103.9,12.47,76.92,134.7971,0,865.3556,0,-0.546,3.114,208,15.41,16.57,21.34584,0.164,49.19,56.81,33.09,34.94
"2013-10-12 07:30:00",99322,0.332,149,12.81,76.47,95.05962,0,865.3334,0,-0.701,3.114,218,15.4,16.53,17.60816,0.187,49.13,56.81,33.08,34.94
"2013-10-12 07:40:00",99323,0.374,109.9,12.86,71.4,68.63235,0,865.306,0,-1.135,3.121,213,15.36,16.51,9.551471,0.139,49.19,56.81,33.09,34.94
"2013-10-12 07:50:00",99324,0.464,125.8,12.22,71.36,79.81288,0,865.2966,0,-1.371,3.126,230,15.31,16.46,12.04727,0.15,49.19,56.81,33.09,34.94
"2013-10-12 08:00:00",99325,0.344,114.8,12.66,70.8,152.7014,0,865.2964,0,-1.662,3.122,222,15.3,16.44,28.35561,0.185,49.13,56.81,33.08,34.94
"2013-10-12 08:10:00",99326,0.547,120.3,13.5,66.71,96.0633,0,865.4727,0,-1.035,3.114,406,15.26,16.42,22.69176,0.238,49.13,56.81,33.08,34.94
"2013-10-12 08:20:00",99327,0.168,126.1,13.57,68.31,75.26693,0,865.5209,0,-2.005,3.123,228,15.23,16.4,21.67262,0.288,49.13,56.81,33.08,34.94
"2013-10-12 08:30:00",99328,0.483,122.3,13.72,67.83,76.40624,0,865.3378,0,-1.257,3.115,200,15.23,16.4,22.77877,0.298,49.13,56.81,33.08,34.94
"2013-10-12 08:40:00",99329,0.88,135.6,13.72,67.67,88.62917,0,865.1714,0,-1.161,3.115,317,15.24,16.4,24.66152,0.279,49.13,56.81,33.08,34.94
"2013-10-12 08:50:00",99330,0.868,140.1,13.81,67.58,177.828,0,865.0683,0,-1.758,3.118,211,15.23,16.42,34.21549,0.199,49.13,56.81,33.08,34.94
"2013-10-12 09:00:00",99331,0.625,137.6,13.77,67.72,146.5418,0,865.1251,0,-1.931,3.123,240,15.23,16.42,20.97934,0.143,49.13,56.81,33.08,34.94
"2013-10-12 09:10:00",99332,0.253,134,13.51,69.4,176.0522,0,865.283,0,-1.438,3.117,293,15.23,16.39,23.72203,0.135,49.13,56.81,33.08,34.94
"2013-10-12 09:20:00",99333,0.281,132.7,13.67,69.27,170.8463,0,865.2746,0,-1.721,3.12,249,15.23,16.36,23.49853,0.137,49.13,56.81,33.08,34.94
"2013-10-12 09:30:00",99334,0.121,22.83,13.74,71.06,199.1237,0,865.2891,0,-1.461,3.118,245,15.22,16.35,25.86578,0.13,49.13,56.81,33.08,34.94
"2013-10-12 09:40:00",99335,0.09,305.4,13.5,74.45,211.6358,0,865.277,0,-1.275,3.117,230,15.24,16.33,27.18997,0.127,49.13,56.81,33.08,34.94
"2013-10-12 09:50:00",99336,0.131,334.1,13.55,73.72,162.9093,0,865.2365,0,-1.545,3.119,230,15.25,16.27,20.13158,0.123,49.19,56.81,33.09,34.94
"2013-10-12 10:00:00",99337,0.116,337.5,13.51,75.76,132.9745,0,865.071,0,-1.492,3.119,235,15.23,16.22,16.13122,0.12,49.19,56.81,33.09,34.94
"2013-10-12 10:10:00",99338,0.237,40.34,13.63,75.74,195.0304,0,865.0458,0,-1.836,3.12,223,15.2,16.23,28.20563,0.146,49.13,56.81,33.08,34.94
"2013-10-12 10:20:00",99339,0.376,65.54,13.97,77.4,240.2897,0,865.0418,0,-1.274,3.114,321,15.2,16.24,30.97082,0.129,49.13,56.81,33.08,34.94
"2013-10-12 10:30:00",99340,0.536,38.74,14.63,72.23,379.3046,0,864.9686,0,-2.568,3.121,236,15.28,16.23,40.15604,0.116,49.13,56.81,33.08,34.94
"2013-10-12 10:40:00",99341,0.828,66.01,15.28,70.88,349.2127,0,864.8274,0,-2.91,3.123,211,15.25,16.21,46.40755,0.129,49.13,56.81,33.08,34.94
"2013-10-12 10:50:00",99342,0.513,3.976,15.02,66.95,431.849,0,864.7284,0,-1.983,3.115,221,15.3,16.2,53.4564,0.126,49.13,56.81,33.08,34.94
"2013-10-12 11:00:00",99343,0.61,32.53,14.98,68.56,302.759,0,864.6945,0,-1.048,3.105,338,15.35,16.18,52.67407,0.171,49.13,56.81,33.08,34.94
"2013-10-12 11:10:00",99344,0.928,40.79,15.42,63.68,405.1515,0,864.6976,0,-41.39,3.496,337,15.31,16.15,69.59733,0.17,49.08,56.81,33.07,34.94
"2013-10-12 11:20:00",99345,0.698,16.72,15.34,63.12,653.2172,0,864.6974,0,-1.245,3.106,238,15.36,16.13,79.07567,0.123,49.13,56.87,33.08,34.95
"2013-10-12 11:30:00",99346,0.424,5.57,15.72,64.22,622.5612,0,864.6973,0,-1.861,3.112,236,15.38,16.15,67.82827,0.096,49.13,56.81,33.08,34.94
"2013-10-12 11:40:00",99347,0.424,295.8,14.88,69.14,614.6036,0,864.5816,0,-1.524,3.112,236,15.42,16.11,74.17518,0.114,49.08,56.81,33.07,34.94
"2013-10-12 11:50:00",99348,0.654,11.13,15.09,68.33,785.4623,0,864.4532,0,-0.888,3.103,255,15.47,16.12,101.3163,0.125,48.97,56.81,33.04,34.94
"2013-10-12 12:00:00",99349,0.527,12.05,15.73,62.26,885.7773,0,864.3922,0,-1.635,3.107,229,15.49,16.11,120.9441,0.136,49.08,56.87,33.07,34.95
"2013-10-12 12:10:00",99350,0.258,322.1,15.87,60.11,768.2712,0,864.1943,0,-1.937,3.109,228,15.56,16.05,101.8276,0.129,49.08,56.81,33.07,34.94
"2013-10-12 12:20:00",99351,0.402,323.9,16,60.61,899.2764,0,864.1459,0,-0.868,3.1,270,15.59,16.01,121.7205,0.135,49.08,56.87,33.07,34.95
"2013-10-12 12:30:00",99352,0.3,329,16.04,60.2,834.8951,0,863.8765,0,-1.509,3.106,304,15.62,16.02,110.8746,0.131,49.08,56.81,33.07,34.94
"2013-10-12 12:40:00",99353,0.417,354.9,15.49,60.58,348.5907,0,863.7376,0,-1.22,3.106,246,15.6,16.05,34.46891,0.075,49.08,56.87,33.07,34.95
"2013-10-12 12:50:00",99354,0.487,328.5,15.42,59.45,578.175,0,863.6871,0,-1.361,3.109,230,15.67,16.09,74.40997,0.104,49.03,56.81,33.05,34.94
"2013-10-12 13:00:00",99355,0.348,348,14.46,62.9,73.74081,0,863.6871,0,-1.453,3.116,212,15.74,16.07,1.007331,0.012,49.03,56.81,33.05,34.94
"2013-10-12 13:10:00",99356,0.441,234.4,13.48,69.66,131.2645,0,863.744,0,-1.584,3.122,218,15.74,16.03,12.37957,0.087,49.03,56.81,33.05,34.94
"2013-10-12 13:20:00",99357,0.524,236.1,13.22,71.72,469.345,0,863.9102,0,-1.579,3.121,245,15.81,16.01,59.58781,0.125,49.03,56.81,33.05,34.94
"2013-10-12 13:30:00",99358,0.639,268.8,13.24,71.1,396.1776,0,863.8891,0,-2.499,3.13,270,15.83,16.03,44.89819,0.113,49.08,56.81,33.07,34.94
"2013-10-12 13:40:00",99359,0.323,252.8,12.92,74.02,195.9365,0,863.9439,0,-40.91,3.508,226,15.84,16,21.25242,0.102,49.03,56.81,33.05,34.94
"2013-10-12 13:50:00",99360,0.437,272.2,12.32,76.62,97.73848,0,863.946,0,-1.027,3.122,240,15.93,16,8.710007,0.084,49.03,56.81,33.05,34.94
"2013-10-12 14:00:00",99361,0.364,357.5,11.99,78.88,56.90709,0,864.1122,0,-41.76,3.522,211,15.92,16.04,4.699617,0.065,48.97,56.81,33.04,34.94
"2013-10-12 14:10:00",99362,0.39,315.4,11.77,80.2,164.2498,0,864.1754,0,-5.917,3.171,221,16.01,16.07,22.1501,0.122,48.97,56.81,33.04,34.94
"2013-10-12 14:20:00",99363,0.766,303.8,11.76,78.7,131.8302,0,864.1847,0,-2.56,3.139,232,16.08,16.08,15.71301,0.109,49.03,56.81,33.05,34.94
"2013-10-12 14:30:00",99364,0.598,284.5,11.68,80.1,118.108,0,864.3055,0,-3.29,3.147,222,16.07,16.12,14.96817,0.126,49.03,56.81,33.05,34.94
"2013-10-12 14:40:00",99365,0.607,295.2,11.6,79.9,143.635,0,864.3311,0,-3.35,3.147,229,16.1,16.13,19.55616,0.135,48.97,56.81,33.04,34.94
"2013-10-12 14:50:00",99366,0.693,269.8,11.62,78.56,173.0751,0,864.3729,0,-3.768,3.151,209,16.16,16.16,22.89477,0.132,48.97,56.81,33.04,34.94
"2013-10-12 15:00:00",99367,0.599,334.6,11.54,78.01,104.5977,0,864.4254,0,-1.685,3.132,240,16.18,16.16,12.67138,0.116,48.97,56.81,33.04,34.94
"2013-10-12 15:10:00",99368,0.59,12.23,11.32,79.56,75.58055,0,864.5332,0,-2.463,3.142,238,16.19,16.16,9.22432,0.115,48.97,56.81,33.04,34.94
"2013-10-12 15:20:00",99369,0.499,326.1,11,81.4,81.86336,0,864.6407,0,-4.099,3.159,232,16.22,16.17,11.342,0.118,48.97,56.81,33.04,34.94
"2013-10-12 15:30:00",99370,0.818,298.6,10.82,80.7,95.35148,0,864.7986,0,-1.044,3.13,310,16.27,16.16,12.35347,0.129,48.97,56.81,33.04,34.94
"2013-10-12 15:40:00",99371,1.303,309.8,10.3,79.47,102.5847,0,864.9439,0,-3.249,3.155,223,16.22,16.16,13.56951,0.131,48.97,56.81,33.04,34.94
"2013-10-12 15:50:00",99372,1.243,314.2,9.89,79.88,63.04774,0,865.0365,0,-4.017,3.164,215,16.18,16.17,7.489367,0.114,48.97,56.81,33.04,34.94
"2013-10-12 16:00:00",99373,1.002,356.3,9.72,77.69,32.92454,0,865.0976,0,-4.098,3.166,209,16.21,16.14,3.295776,0.099,48.97,56.81,33.04,34.94
"2013-10-12 16:10:00",99374,0.821,349.3,9.37,79.44,22.74465,0,865.2913,0,-2.399,3.151,226,16.22,16.13,1.977466,0.085,48.97,56.81,33.04,34.94
"2013-10-12 16:20:00",99375,0.666,342,9.23,79.03,32.65737,0,865.2934,0,-3.315,3.16,210,16.19,16.14,4.447404,0.131,48.92,56.81,33.03,34.94
"2013-10-12 16:30:00",99376,1.013,333.3,9.31,76.45,41.28196,0,865.3517,0,-4.336,3.17,235,16.18,16.15,6.004453,0.144,48.92,56.81,33.03,34.94
"2013-10-12 16:40:00",99377,1.209,299.9,9.01,78.45,21.14324,0,865.5804,0,-2.325,3.153,217,16.19,16.17,2.648189,0.125,48.92,56.81,33.03,34.94
"2013-10-12 16:50:00",99378,1.076,298.5,8.8,76.77,29.14221,0,865.6019,0,-0.891,3.138,302,16.19,16.21,4.739951,0.158,48.92,56.81,33.03,34.94
"2013-10-12 17:00:00",99379,0.775,286.2,8.98,74.77,17.21672,0,865.6028,0,-4.992,3.179,203,16.14,16.23,2.785013,0.162,48.92,56.75,33.03,34.93
"2013-10-12 17:10:00",99380,0.738,328.9,8.77,74.21,3.741467,0,865.6309,0,-4.695,3.177,221,16.15,16.26,0.8222959,0.233,48.92,56.81,33.03,34.94
"2013-10-12 17:20:00",99381,0.445,333.8,8.53,75.94,0.326207,0,865.6553,0,-4.041,3.172,377,16.09,16.27,0.4888433,0.531,48.92,56.81,33.03,34.94
"2013-10-12 17:30:00",99382,0.414,305.5,8.27,75.3,0,0,865.6371,0,-6.05,3.193,244,16.09,16.28,0.3069516,0,48.86,56.81,33.01,34.94
"2013-10-12 17:40:00",99383,0.437,40.43,8.08,75.32,0,0,865.6521,0,-2.473,3.158,229,15.98,16.29,0.4357968,0,48.92,56.75,33.03,34.93
"2013-10-12 17:50:00",99384,0.614,26.94,8.36,71.15,0.003930283,0,865.7153,0,-2.162,3.153,243,16,16.27,0.8185408,0.08,48.92,56.75,33.03,34.93
"2013-10-12 18:00:00",99385,0.427,322.9,8.55,69.29,0,0,865.7722,0,-4.625,3.177,333,15.89,16.27,0.6821174,0,48.92,56.75,33.03,34.93
"2013-10-12 18:10:00",99386,0.595,328.3,8.49,70.63,0,0,865.6542,0,-1.935,3.151,214,15.92,16.27,0.4774822,0,48.92,56.75,33.03,34.93
"2013-10-12 18:20:00",99387,0.696,335.9,8.46,70.29,0,0,865.8564,0,-3.889,3.17,274,15.83,16.27,0.2349515,0,48.92,56.81,33.03,34.94
"2013-10-12 18:30:00",99388,0.227,343.8,8.44,72.45,0,0,865.9891,0,-4.704,3.179,260,15.81,16.27,0.3259005,0,48.92,56.75,33.03,34.93
"2013-10-12 18:40:00",99389,0.504,287.4,8.35,72.46,0,0,866.1239,0,-4.018,3.172,225,15.71,16.27,0.2576888,0,48.92,56.75,33.03,34.93
"2013-10-12 18:50:00",99390,0.443,147.7,8.26,74.67,0,0,866.3093,0,-4.58,3.179,261,15.73,16.27,0.231162,0,48.92,56.81,33.03,34.94
"2013-10-12 19:00:00",99391,0.522,277.4,8.1,75.92,0,0,866.3682,0,-4.58,3.179,228,15.63,16.27,0.272847,0,48.86,56.81,33.01,34.94
"2013-10-12 19:10:00",99392,0.471,283.9,8.04,76.41,0,0,866.3977,0,-4.834,3.182,234,15.64,16.27,0.7730663,0,48.92,56.75,33.03,34.93
"2013-10-12 19:20:00",99393,0.36,304.7,8.01,76.63,0,0,866.5915,0,-3.693,3.171,220,15.58,16.27,0.7616977,0,48.86,56.75,33.01,34.93
"2013-10-12 19:30:00",99394,0.53,177.9,7.915,78.69,0,0,866.6462,0,-5.039,3.185,246,15.56,16.27,0.5040089,0,48.86,56.75,33.01,34.93
"2013-10-12 19:40:00",99395,0.158,216.6,7.89,82.5,0,0,866.6484,0,-4.354,3.178,313,15.47,16.27,0.7162232,0,48.92,56.81,33.03,34.94
"2013-10-12 19:50:00",99396,0.444,227.6,7.604,83.2,0,0,866.6484,0,-1.673,3.154,216,15.48,16.28,1.174758,0,48.92,56.81,33.03,34.94
"2013-10-12 20:00:00",99397,0.393,244.3,7.342,84.4,0,0,866.7768,0,-4.918,3.187,226,15.4,16.31,1.561291,0,48.92,56.81,33.03,34.94
"2013-10-12 20:10:00",99398,0.523,151.4,7.232,88.1,0,0,866.9011,0,-1.702,3.156,216,15.42,16.28,1.341498,0,48.92,56.75,33.03,34.93
"2013-10-12 20:20:00",99399,1.284,303.7,7.062,88.3,0,0,867.0359,0,-1.933,3.159,233,15.31,16.26,1.136862,0,48.92,56.75,33.03,34.93
"2013-10-12 20:30:00",99400,0.674,299.7,6.993,89.2,0,0,867.2043,0,-3.504,3.175,244,15.32,16.17,1.159599,0,48.92,56.75,33.03,34.93
"2013-10-12 20:40:00",99401,0.97,292.7,6.934,87.8,0,0,867.1581,0,-2.162,3.162,219,15.32,16.15,1.458973,0,48.92,56.75,33.03,34.93
"2013-10-12 20:50:00",99402,0.756,290.6,6.876,84.8,0,0,867.1622,0,-1.987,3.161,236,15.24,16.15,2.296462,0,48.92,56.75,33.03,34.93
"2013-10-12 21:00:00",99403,0.877,320.8,6.785,85.3,0,0,867.2423,0,-2.848,3.17,248,15.26,16.18,2.444254,0,48.97,56.75,33.04,34.93
"2013-10-12 21:10:00",99404,0.694,256.5,6.633,86.4,0,0,867.3203,0,-3.531,3.177,244,15.12,16.19,2.069089,0,48.92,56.75,33.03,34.93
"2013-10-12 21:20:00",99405,0.562,199.1,6.683,87.2,0,0,867.3412,0,-1.84,3.16,259,15.19,16.2,1.99332,0,48.92,56.75,33.03,34.93
"2013-10-12 21:30:00",99406,0.617,189.1,6.539,88.3,0,0,867.3834,0,-2.398,3.166,219,15.05,16.22,2.008527,0,48.92,56.75,33.03,34.93
"2013-10-12 21:40:00",99407,0.651,183,6.402,88.5,0,0,867.4066,0,-2.073,3.165,206,15.1,16.24,2.042612,0,48.92,56.75,33.03,34.93
"2013-10-12 21:50:00",99408,0.712,191.9,6.23,88,0,0,867.5392,0,-2.304,3.167,211,14.98,16.23,1.966832,0,48.92,56.75,33.03,34.93
"2013-10-12 22:00:00",99409,0.694,186.9,6.296,85.1,0,0,867.4529,0,-2.184,3.166,211,15.02,16.18,2.179137,0,48.92,56.75,33.03,34.93
"2013-10-12 22:10:00",99410,0.517,194,6.209,86.4,0,0,867.4277,0,-2.343,3.168,206,14.95,16.13,1.955608,0,48.92,56.75,33.03,34.93
"2013-10-12 22:20:00",99411,0.481,204.5,6.211,86.8,0,0,867.4108,0,-2.497,3.169,203,14.95,16.16,2.035271,0,48.92,56.75,33.03,34.93
"2013-10-12 22:30:00",99412,0.346,182.6,6.105,86,0,0,867.4066,0,-2.604,3.172,202,14.89,16.19,1.963297,0,48.92,56.75,33.03,34.93
"2013-10-12 22:40:00",99413,0.626,183.6,5.921,87.4,0,0,867.3876,0,-2.554,3.172,201,14.87,16.19,1.92162,0,48.97,56.75,33.04,34.93
"2013-10-12 22:50:00",99414,0.482,214.3,5.687,86.2,0,0,867.3392,0,-2.229,3.17,202,14.81,16.19,1.663892,0,48.92,56.75,33.03,34.93
"2013-10-12 23:00:00",99415,0.607,213.9,5.702,84.7,0,0,867.4066,0,-2.458,3.172,202,14.8,16.16,1.917856,0,48.92,56.75,33.03,34.93
"2013-10-12 23:10:00",99416,0.54,166.4,5.52,85.7,0,0,867.3773,0,-2.817,3.177,227,14.68,16.09,1.523684,0,48.97,56.75,33.04,34.93
"2013-10-12 23:20:00",99417,0.708,221.1,5.594,82.4,0,0,867.1987,0,-3.782,3.184,210,14.71,16.09,1.633693,0,48.97,56.75,33.04,34.93
"2013-10-12 23:30:00",99418,0.486,218.7,5.665,82.2,0,0,867.1956,0,-4.65,3.194,214,14.63,16.1,1.444239,0,48.92,56.75,33.03,34.93
"2013-10-12 23:40:00",99419,0.37,150.5,5.419,81.9,0,0,867.22,0,-2.889,3.18,211,14.65,16.13,1.216835,0,48.97,56.75,33.04,34.93
"2013-10-12 23:50:00",99420,0.502,183.1,4.841,87,0,0,867.232,0,-2.462,3.176,210,14.58,16.15,0.9780306,0,48.97,56.75,33.04,34.93
